Back to catalog

STARLINK-6313

AliveCommunicationsVLEO
NORAD 56519·PAYLOAD·🇺🇸 United States

Launched May 14, 2023 from Cape Canaveral Space Force Station

Loading…

Next Passes (next 24 hours)

TLE

FreshSource: CelesTrak SupGP

Epoch: Sep 14, 2026, 22:31 UTC

1 56519C 23065S   26257.93868056  .00006606  00000+0  23930-3 0  2573
2 56519  43.0035 223.8800 0001359 259.4657 356.2326 15.27570361    17

Track STARLINK-6313 in real time with AllMySat

Download on the App Store